Probability
1 1 1 0 0 0 0 0 0 0 0 0 0 0 0 0 0 1 1 1 0 0 0 0 0 0 0 0 0 0 0 0 0 0 0 0 0 0 0 0 0 0 0
0 0 0 0 0 0 0 0 0 0 0 0 0 0 0 0 0 0 0 0 0 0 0 0 0 0 0 0 0 0 0 0 0 0 0 0 0 0 0 0 0 0 0
0 0 0 0 0 0 0 0 0 0 0 0 0 0 0 0 0 0 0 0 0 0 0 0 0 0 0 0 0 0 0 0 0 0 0 0 0 0 0 0 0 0 0
0 1 1 0 0 0 0 0 0 0 0 0 0 0 1 1 1 0 0 0 0 0 0 0 0 0 0 0 0 1 1 0 0 0 0 0 0 0 0 0 0 0 0
1 2 2 1 0 0 0 0 0 0 0 0 1 1 2 2 1 0 0 0 0 0 0 0 0 0 0 0 0 1 2 1 0 0 0 0 0 0 0 0 0 0 0
1 2 3 2 1 0 0 0 0 1 1 1 2 3 3 3 1 0 0 0 0 0 0 0 0 0 0 0 0 2 2 1 0 0 0 0 0 0 0 0 0 0 0
2 3 3 3 1 1 0 0 1 2 2 3 3 3 3 3 1 1 1 0 0 0 0 0 0 0 0 0 1 2 2 2 0 0 0 0 0 0 0 0 0 0 0
3 3 3 3 3 2 1 1 2 3 3 3 4 4 4 3 2 1 1 0 0 0 0 0 0 0 0 0 1 1 2 1 0 0 0 0 0 0 0 0 0 0 0
3 3 3 3 3 3 2 2 3 3 4 4 5 5 5 4 3 2 1 1 1 0 0 0 0 0 0 0 0 0 1 1 0 0 0 0 0 0 0 0 0 0 0
3 3 3 3 3 3 3 3 2 3 4 5 6 6 4 3 3 3 3 2 2 1 0 0 0 0 0 0 0 0 0 0 0 0 0 0 0 0 0 0 0 0 0
3 3 3 3 3 3 3 3 2 2 3 5 6 6 4 3 3 3 3 3 3 2 0 0 0 0 0 0 0 0 0 0 0 0 0 0 0 0 0 0 0 0 0
3 3 3 3 3 3 4 4 3 2 3 5 6 6 5 4 3 2 2 3 3 2 1 1 1 0 0 0 1 0 0 0 0 0 0 1 1 0 0 0 0 0 0
3 3 3 3 3 3 3 4 4 3 4 5 6 6 4 3 3 3 3 3 3 3 2 2 2 1 1 1 1 0 0 0 0 0 1 2 2 1 0 0 0 0 0
3 3 3 3 3 3 3 3 3 3 3 4 5 5 4 3 3 3 3 3 3 3 3 3 3 3 2 2 1 1 1 0 0 1 1 3 3 2 1 0 0 0 1
3 3 3 3 3 3 3 3 2 2 2 1 2 4 4 3 3 3 3 3 3 3 3 3 4 4 3 3 3 2 2 1 1 2 3 3 3 3 1 0 0 1 2
3 3 3 3 3 3 3 3 2 1 1 0 0 2 3 3 3 3 3 3 3 3 3 4 5 5 4 3 3 3 3 3 3 3 3 3 3 2 2 1 1 3 4
3 3 4 3 3 3 3 3 2 1 1 0 0 1 2 3 3 3 3 3 3 3 4 6 7 6 5 4 3 3 3 3 3 3 3 2 1 1 2 2 2 3 3
4 4 5 5 4 4 4 4 3 3 2 1 1 1 3 4 4 4 4 4 3 3 4 6 7 6 4 3 3 3 3 3 3 3 3 1 0 0 1 3 3 2 2
4 5 5 6 6 5 5 5 3 2 2 2 2 3 4 5 6 5 5 5 4 3 4 5 5 4 3 3 3 3 3 3 3 3 2 1 0 0 1 2 2 1 1
3 4 6 7 7 6 6 5 4 2 1 1 1 3 5 6 6 6 6 5 4 3 3 4 4 3 3 3 3 3 3 3 3 2 1 0 0 0 0 1 1 0 0
2 4 7 8 8 7 6 6 5 4 2 0 1 3 4 5 6 6 6 6 4 4 4 5 5 4 4 3 3 3 3 3 2 1 0 0 0 0 0 1 1 1 0
2 5 8 10 10 8 6 5 5 5 3 1 2 3 3 4 5 6 6 6 5 4 5 7 7 7 5 4 3 3 3 2 1 1 0 0 0 0 0 1 2 1 1
2 5 8 10 10 9 8 6 5 6 5 4 4 3 3 3 4 6 6 6 5 6 7 9 10 9 8 6 5 4 2 1 0 0 0 0 0 0 0 0 1 1 0
4 4 6 8 10 10 10 9 8 7 6 6 5 5 4 3 4 6 7 8 8 8 9 10 11 11 10 9 7 4 3 2 1 1 0 0 0 0 0 0 0 0 1
5 4 5 8 9 10 11 12 12 10 7 7 8 9 7 4 4 5 7 9 9 9 10 11 12 13 12 10 8 5 4 4 3 2 1 0 0 0 0 0 0 0 1
6 5 5 7 9 9 10 12 14 11 8 8 11 12 9 6 4 4 6 8 8 9 10 12 13 13 12 10 7 6 5 5 5 3 2 1 1 1 0 0 0 0 1
Wind_Speed
5 7 9 8 8 9 9 10 10 11 11 11 11 11 12 12 13 13 14 14 15 15 15 16 16 16 16 15 15 15 15 14 14 13 13 13 13 12 12 12 11 11 14
5 7 9 8 8 9 9 9 10 10 10 11 11 11 11 12 12 12 14 14 14 14 15 15 15 15 15 15 14 14 14 13 13 13 13 13 12 11 10 9 7 9 12
6 7 8 8 9 9 9 9 9 9 10 10 10 11 11 12 12 12 14 13 14 14 15 15 14 14 14 14 14 14 13 13 12 11 9 9 11 11 10 10 10 11 11
6 6 8 9 8 9 8 8 9 9 9 9 10 10 11 11 12 12 13 13 13 14 14 14 14 14 14 14 13 13 12 12 10 8 6 7 9 11 10 10 10 10 10
6 7 9 8 8 7 8 8 8 8 9 9 9 10 10 11 11 11 12 12 12 13 13 14 14 14 13 13 12 12 11 10 8 5 6 6 7 10 10 9 9 9 9
7 8 10 8 8 7 7 8 8 8 8 8 9 9 10 9 9 10 11 11 12 12 13 13 13 13 13 12 12 11 10 8 7 5 6 6 7 10 10 9 9 9 9
7 7 9 8 8 8 7 7 7 7 7 8 8 8 9 8 9 9 10 11 11 11 12 12 12 12 11 11 10 10 8 6 3 5 5 5 7 9 9 8 8 8 9
6 7 9 9 8 8 7 7 7 6 7 8 8 8 8 8 9 10 10 11 11 11 11 11 10 10 10 10 9 8 7 4 5 5 5 6 9 8 8 8 8 8 8
6 6 6 7 7 8 8 7 7 7 8 8 8 8 7 8 9 10 10 10 11 10 10 10 10 9 9 9 8 7 5 2 2 3 4 5 8 7 7 7 7 7 7
5 5 5 6 5 6 7 7 7 7 8 8 7 7 8 9 9 9 9 10 10 10 9 9 9 9 8 8 7 7 5 4 3 3 3 6 8 6 6 6 7 7 7
5 4 4 5 5 4 5 7 6 7 7 6 7 7 5 4 6 7 10 10 9 9 9 8 8 8 8 8 7 6 4 2 2 2 3 8 6 6 6 6 7 7 7
5 5 4 4 3 4 4 4 3 4 5 4 4 5 4 4 4 5 10 9 9 8 9 8 8 8 6 5 7 6 3 2 2 2 5 8 6 5 5 6 7 7 7
5 4 4 3 3 3 3 2 2 2 3 4 5 4 3 3 3 4 4 6 6 7 5 8 7 4 3 3 3 3 2 2 1 2 5 7 5 5 5 5 6 7 7
4 4 4 3 3 2 2 2 2 2 3 3 4 3 3 2 2 3 2 3 3 3 3 3 2 3 3 3 3 3 3 1 1 2 5 7 5 4 4 4 5 6 6
4 4 3 3 3 2 2 1 2 2 3 3 3 3 2 2 3 3 2 2 2 2 3 3 3 3 3 3 2 3 2 2 1 1 4 7 5 4 4 5 5 6 6
4 3 4 3 3 3 2 2 2 2 2 2 2 3 2 2 2 2 3 2 2 2 2 2 3 3 3 3 2 2 2 2 2 1 2 5 6 4 3 4 5 5 6
4 3 4 4 4 3 2 2 2 2 2 2 2 2 2 2 2 2 2 2 2 2 2 2 2 2 3 3 3 3 2 2 2 1 1 1 3 5 4 4 4 4 5
4 4 3 3 4 4 2 1 1 1 2 1 1 2 2 2 2 1 1 2 2 1 2 2 2 2 2 2 2 1 1 2 2 2 1 1 1 2 4 4 3 3 4
4 4 4 3 3 4 3 2 2 2 1 1 1 1 2 2 2 1 1 2 2 2 1 1 2 1 2 2 2 2 1 1 1 1 1 1 1 1 1 5 5 3 3
5 5 5 4 4 4 3 3 2 2 1 1 1 1 1 1 1 1 2 2 1 2 1 1 2 1 1 1 1 2 1 2 1 2 1 2 2 1 1 1 3 3 3
6 6 6 5 4 3 3 2 2 2 1 1 1 2 1 1 1 1 1 2 1 2 1 2 2 3 2 2 2 2 3 2 2 2 1 1 2 1 1 1 0 0 2
7 7 7 6 5 5 3 2 1 1 1 1 1 2 1 1 1 1 1 1 1 2 2 2 2 1 1 2 1 2 3 4 2 2 1 1 1 1 1 1 1 1 1
8 8 6 6 6 5 4 3 2 2 2 2 2 1 1 1 1 1 0 0 1 1 2 2 2 2 1 1 1 2 1 1 2 2 1 1 1 1 1 1 1 1 1
8 8 8 7 7 6 6 4 4 2 1 1 1 1 1 1 1 1 1 1 1 1 1 2 2 2 2 1 1 1 2 1 1 2 2 1 1 1 1 1 1 1 1
8 8 8 8 7 7 6 5 5 3 2 2 1 2 1 1 1 1 1 1 1 1 1 1 1 2 2 2 1 1 1 1 2 1 1 1 1 1 1 1 1 1 2
8 8 8 8 7 7 7 6 5 4 3 2 2 2 2 1 1 1 1 1 2 1 2 2 2 3 2 2 2 1 1 1 1 1 1 1 1 1 1 1 1 1 1
Wind_Direction
58 69 81 75 80 85 86 86 88 94 96 97 99 103 107 108 110 113 117 119 118 116 116 118 118 120 121 119 119 119 119 118 118 116 115 115 117 118 121 125 134 120 118
68 78 88 80 83 85 86 87 88 93 96 96 98 103 106 110 110 113 119 119 119 119 118 119 119 119 120 120 120 120 119 119 119 118 120 121 120 120 120 119 107 109 123
81 85 96 87 86 87 87 89 88 92 96 97 97 101 108 111 111 113 118 118 120 119 119 119 120 121 121 122 121 120 119 120 120 127 143 133 122 122 121 117 115 124 127
87 86 83 86 87 88 89 89 87 90 94 96 97 100 107 109 110 112 117 119 121 121 121 120 119 121 120 121 120 119 119 120 125 149 143 118 121 122 126 125 128 131 132
90 88 84 84 86 90 92 91 88 90 93 94 97 101 106 110 113 116 120 123 124 123 122 122 120 121 121 120 120 121 122 125 138 154 113 115 113 122 130 132 135 136 136
90 90 88 81 85 89 93 95 94 95 95 95 99 103 106 110 115 118 123 126 126 125 122 122 121 122 122 121 121 123 127 141 170 130 126 128 121 127 135 137 139 140 141
93 90 93 83 84 87 90 95 96 98 99 98 102 104 105 107 110 119 124 125 125 126 127 125 123 124 124 124 125 127 132 149 161 131 132 124 110 125 137 141 143 144 146
99 96 100 101 89 86 87 89 90 92 96 101 104 104 104 107 109 115 121 125 125 127 127 128 128 127 127 129 131 134 141 175 154 135 134 123 114 132 144 148 147 148 151
97 97 102 108 110 108 95 90 92 94 98 101 103 104 105 108 111 116 121 125 126 129 130 132 132 129 130 131 133 137 141 165 179 133 138 119 127 144 154 156 157 155 157
94 93 98 97 99 112 113 100 92 96 98 99 98 99 105 117 121 122 130 125 127 131 133 135 135 133 130 130 134 141 153 188 183 143 134 117 134 152 162 163 166 163 165
107 101 97 97 98 94 97 107 115 115 109 119 118 114 125 122 120 129 109 121 131 134 134 134 134 134 137 138 140 146 173 200 131 116 114 111 140 160 166 170 173 173 170
117 108 96 87 89 96 91 101 105 109 110 106 94 106 109 101 98 104 113 122 130 137 138 133 136 149 173 152 151 170 180 171 147 142 112 119 138 160 170 175 173 176 177
120 113 105 97 85 83 95 96 91 96 103 107 97 95 94 103 117 122 132 138 143 154 153 143 157 160 149 136 157 164 154 166 154 134 114 125 141 153 163 172 178 179 180
127 124 118 114 104 81 68 92 103 106 104 102 109 106 107 99 96 102 116 120 132 133 130 134 140 135 142 154 169 155 153 181 167 134 115 130 146 157 165 170 176 178 181
139 137 128 120 109 106 98 57 93 90 93 106 99 102 96 110 104 100 103 102 111 122 144 148 150 145 152 157 168 158 160 165 160 159 127 135 149 160 166 173 181 188 189
152 147 142 143 132 127 123 103 76 94 104 94 100 98 99 102 103 114 125 122 113 114 110 144 149 156 160 154 163 155 171 167 161 184 150 141 150 156 163 176 182 185 187
153 148 149 149 140 138 139 130 115 102 96 92 95 97 109 120 121 129 125 136 113 118 133 155 157 160 169 163 157 155 161 156 149 159 162 159 157 158 165 178 186 191 190
158 151 154 153 143 144 140 128 105 87 91 91 101 102 107 113 132 152 139 122 125 140 149 153 163 154 146 147 135 142 135 149 157 153 164 172 180 159 160 166 172 176 181
171 162 159 162 156 147 141 136 122 105 82 86 86 91 104 123 141 164 132 114 153 145 163 183 118 141 134 128 140 143 152 138 136 143 113 113 107 108 130 138 153 149 165
177 176 175 175 167 164 158 153 147 123 117 101 93 82 90 125 139 153 146 133 158 144 146 127 126 125 133 143 144 106 109 110 115 107 131 123 120 118 89 109 153 151 154
188 185 183 183 167 176 179 185 169 152 136 116 110 88 94 100 111 148 129 128 153 138 143 152 158 153 160 155 159 138 126 116 95 92 86 74 110 106 78 51 46 160 158
188 187 184 181 177 185 174 181 167 111 121 102 75 86 83 92 98 151 123 166 135 140 145 152 171 185 178 197 226 207 172 152 134 95 102 109 67 100 96 80 53 45 334
191 189 187 182 179 185 183 181 162 163 180 154 136 128 93 80 80 40 124 215 182 202 149 171 190 206 213 192 242 276 269 134 133 124 94 74 60 40 50 71 69 57 45
191 186 186 183 183 183 187 190 187 189 179 133 146 122 114 96 101 170 207 197 221 200 165 208 189 227 244 226 191 256 307 349 241 153 153 128 116 72 23 17 37 62 54
186 186 183 182 184 185 188 187 197 203 191 174 160 132 162 136 186 209 193 198 202 207 198 233 213 240 245 257 249 214 195 201 253 234 163 163 135 105 90 67 38 49 68
183 184 181 177 185 188 190 192 200 203 203 195 196 195 200 175 177 179 200 199 207 212 206 219 222 218 246 260 266 254 234 234 208 198 199 206 170 109 96 86 80 86 92